Regional Weather Roundup
Issued by NWS

Home | Current Version | Previous Version | Text Only | Print | Product List | Glossary On
Versions: 1 2 3 4 5 6 7 8 9 10 11 12 13 14 15 16 17 18 19 20 21 22 23 24 25 26 27 28 29 30 31 32 33 34 35 36 37 38 39 40 41 42 43 44 45 46 47 48 49 50
493
ASUS43 KOAX 271410
RWRNE

WEATHER ROUNDUP FOR NEBRASKA
NATIONAL WEATHER SERVICE OMAHA NE
900 AM CDT TUE JUN 27 2017

NOTES: SATELLITE DATA IS BEING USED TO AUGMENT CLOUD COVER ABOVE
       12000 FEET.
       "FAIR" INDICATES FEW OR NO CLOUDS BELOW 12,000 FEET WITH NO
       SIGNIFICANT WEATHER AND/OR OBSTRUCTIONS TO VISIBILITY.

  * THESE STATIONS DO NOT REPORT WEATHER SUCH AS RAIN...SNOW OR FOG.

NEZ001>004-019>022-054>056-271500-
NEBRASKA PANHANDLE

CITY           SKY/WX    TMP DP  RH WIND       PRES   REMARKS
SCOTTSBLUFF    MOSUNNY   68  57  68 S14       29.91F
CHADRON        MOSUNNY   68  55  63 S23G33    29.84S
GORDON         CLOUDY    65  57  77 S29G36    29.89F
KIMBALL        PTSUNNY   64  58  82 S16       29.97F
SIDNEY         PTSUNNY   62  57  83 S18G26    29.96F
$$

NEZ057>060-069>072-079>082-271500-
SOUTHWEST NEBRASKA

CITY           SKY/WX    TMP DP  RH WIND       PRES   REMARKS
NORTH PLATTE   CLOUDY    64  59  83 SE15G26   29.99F
IMPERIAL       CLOUDY    62  57  83 S13       29.99F
LEXINGTON      SUNNY     65  57  75 SE16G22   30.01F
MCCOOK         CLOUDY    62  60  93 SE10      29.99F
OGALLALA       CLOUDY    65  58  78 S14G22    29.97F
$$

NEZ005>010-023>029-035>040-094-271500-
NORTH CENTRAL NEBRASKA

CITY           SKY/WX    TMP DP  RH WIND       PRES   REMARKS
VALENTINE      PTSUNNY   68  54  60 S28G37    29.93F
AINSWORTH      SUNNY     64  55  70 S25G31    29.96F
BROKEN BOW     SUNNY     64  55  72 S22G28    30.00F
O`NEILL        SUNNY     61  55  81 S16G22    30.03F
ORD            SUNNY     65  53  65 SE12G21   30.01F
THEDFORD       SUNNY     66  56  70 S20G26    29.98F
$$

NEZ041-046>049-061>064-073>077-083>087-271500-
SOUTH CENTRAL NEBRASKA

CITY           SKY/WX    TMP DP  RH WIND       PRES   REMARKS
GRAND ISLAND   SUNNY     64  57  78 SE12G23   30.05F
AURORA         SUNNY     64  59  83 SE13      30.06F
HASTINGS       SUNNY     64  56  75 SE12G23   30.04F
HEBRON         MOSUNNY   63  62  97 SE13      30.06S
HOLDREGE       SUNNY     64  55  72 SE16      30.01F
YORK           SUNNY     64  57  77 SE15      30.07F
$$

NEZ011>018-030>034-042>045-271500-
NORTHEAST NEBRASKA

CITY           SKY/WX    TMP DP  RH WIND       PRES   REMARKS
NORFOLK        SUNNY     64  56  75 S17       30.05F
ALBION         MOSUNNY   64  56  74 S14       30.05F
BLAIR          SUNNY     65  56  70 S9        30.10S
FREMONT        SUNNY     65  59  79 SE8       30.09F
TEKAMAH        SUNNY     65  49  56 S14       30.10S
WAYNE          SUNNY     64  58  80 S13       30.07F
$$

NEZ050>053-065>068-078-088>093-271500-
SOUTHEAST NEBRASKA

CITY           SKY/WX    TMP DP  RH WIND       PRES   REMARKS
LINCOLN        SUNNY     67  57  70 SE14      30.08F
OMAHA EPPLEY   MOSUNNY   65  53  65 SE8       30.11S
BEATRICE       SUNNY     65  59  81 SE7       30.08F
FALLS CITY     SUNNY     64  59  83 SE8       30.10S
NEBRASKA CITY  SUNNY     64  63  97 SE7       30.11S
PLATTSMOUTH    SUNNY     64  58  82 SE7       30.11S
$$

NEZ044-045-051>053-067-271500-
OMAHA AREA

CITY           SKY/WX    TMP DP  RH WIND       PRES   REMARKS
OMAHA EPPLEY   MOSUNNY   65  53  65 SE8       30.11S
BLAIR          SUNNY     65  56  70 S9        30.10S
FREMONT        SUNNY     65  59  79 SE8       30.09F
MILLARD        SUNNY     67  60  78 SE9       30.10S
OFFUTT AFB     SUNNY     64  56  76 SE6       30.10F
PLATTSMOUTH    SUNNY     64  58  82 SE7       30.11S
WAHOO          CLOUDY    63  58  81 SE7       30.09F
$$




USA.gov is the U.S. government's official web portal to all federal, state and local government web resources and services.